Regional Weather Roundup
Issued by NWS

Home | Current Version | Previous Version | Text Only | Print | Product List | Glossary Off
Versions: 1 2 3 4 5 6 7 8 9 10 11 12 13 14 15 16 17 18 19 20 21 22 23 24 25 26 27 28 29 30 31 32 33 34 35 36 37 38 39 40 41 42 43 44 45 46 47 48 49 50

000
ASUS45 KBOU 051310
RWRCO

WEATHER ROUNDUP FOR COLORADO
NATIONAL WEATHER SERVICE DENVER/BOULDER CO
700 AM MDT SUN JUL 05 2015

NOTE: "FAIR" INDICATES FEW OR NO CLOUDS BELOW 12000 FEET WITH NO
SIGNIFICANT WEATHER AND/OR OBSTRUCTIONS TO VISIBILITY.

COZ001>005-013-030-031-051400-
...NORTHWEST COLORADO...

CITY           SKY/WX    TMP DP  RH WIND       PRES   REMARKS
CRAIG          CLOUDY    61  56  83 CALM      30.18R
HAYDEN         CLOUDY    61  46  59 CALM      30.21R
MEEKER         LGT RAIN  64  55  72 SW5       30.19S
MOUNT WERNER   NOT AVBL
STEAMBOAT SPGS CLOUDY    55  48  76 CALM      30.23R
WALDEN         PTSUNNY   52  43  71 SE7       30.27S
$$

COZ006>008-011-051400-
...WEST CENTRAL VALLEYS...

CITY           SKY/WX    TMP DP  RH WIND       PRES   REMARKS
GRAND JUNCTION CLOUDY    64  62  93 W6        30.12R
MONTROSE       CLOUDY    65  58  78 W5        30.18R
EAGLE          PTSUNNY   59  48  67 E3        30.23R
RIFLE          CLOUDY    63  58  83 E3        30.15S
DELTA          CLOUDY    68  60  75 CALM      30.13R
NUCLA          CLOUDY    63  59  88 CALM      30.22S
$$

COZ017>023-064>068-051400-
...SOUTHWEST COLORADO...

CITY           SKY/WX    TMP DP  RH WIND       PRES   REMARKS
DURANGO        CLOUDY    57  55  93 CALM      30.23R
CORTEZ         CLOUDY    63  57  81 S3        30.19R
PAGOSA SPRINGS CLOUDY    55  54  99 CALM      30.30R
TELLURIDE      CLOUDY    53  50  88 E3        30.39R
WOLF CREEK PAS NOT AVBL
$$

COZ009-010-012-014-032>034-037-058>063-051400-
...CENTRAL COLORADO...

CITY           SKY/WX    TMP DP  RH WIND       PRES   REMARKS
ASPEN          MOSUNNY   56  47  71 CALM      30.29R
BUENA VISTA    MOSUNNY   52  47  82 CALM      30.27S
COPPER MTN     NOT AVBL
BERTHOUD PASS  FAIR      43  32  65 N8        30.60S
COTTONWOOD PAS NOT AVBL
GUNNISON       PTSUNNY   54  46  76 CALM      30.32R
KREMMLING      MOSUNNY   54  43  66 CALM      30.28R
LEADVILLE      MOSUNNY   46  43  89 CALM      30.39S
MONARCH PASS   CLOUDY    45  41  87 W18       30.64F
SALIDA         MOSUNNY   60  49  67 N8        30.30S
SUNLIGHT       PTSUNNY   50  48  93 CALM      30.50S
WILKERSON PASS MOSUNNY   52  37  58 W5        30.52R
$$

COZ069>075-051400-
...SAN LUIS VALLEY/SANGRE DE CRISTO MOUNTAINS...

CITY           SKY/WX    TMP DP  RH WIND       PRES   REMARKS
ALAMOSA        PTSUNNY   51  47  86 E3        30.26S
LA VETA PASS   MOSUNNY   48  41  76 MISG      30.40R
SAGUACHE       PTSUNNY   55  48  76 NW10      30.29S
$$

COZ035-036-038>040-051400-
...NORTHERN COLORADO FRONT RANGE...

CITY           SKY/WX    TMP DP  RH WIND       PRES   REMARKS
DENVER INTL AP MOSUNNY   72  50  45 S9        30.00S
DMNS CITY PARK   N/A     69  52  54 SE8       30.01S
AURORA         MOSUNNY   67  52  57 S9        30.04R
FRONT RANGE AP PTSUNNY   70  54  56 S8        30.02S
ERIE MUNI ARPT MOSUNNY   64  54  70 CALM      29.99R
BOULDER MUN AP MOSUNNY   70  50  49 W3        29.99S
CENTENNIAL     MOSUNNY   65  54  67 SE5       30.05R
BROOMFIELD     MOSUNNY   66  50  55 CALM      30.03R
FORT COLLINS   MOSUNNY   63  54  72 CALM      29.99R
LONGMONT       MOSUNNY   66  56  70 CALM      30.00R
$$

COZ041-046-047-076>085-087-088-051400-
...PIKES PEAK/PALMER DIVIDE AND SOUTHERN FOOTHILLS...

CITY           SKY/WX    TMP DP  RH WIND       PRES   REMARKS
COLO. SPRINGS  MOSUNNY   64  53  67 N8        30.08S
A. F. ACADEMY  SUNNY     58  50  74 N8        30.10S
ELLICOTT       MOSUNNY  N/A N/A N/A CALM      30.06R
FALCON         MOSUNNY   65  47  52 N5        30.14S
FORT CARSON    MOSUNNY   65  52  62 N7        30.04S
LIMON          MOSUNNY   62  53  72 W5        30.01S
MONUMENT HILL  MOSUNNY   61  50  67 SW6       30.15R
TRINIDAD       SUNNY     67  51  56 SW8       30.06S
$$

COZ042>045-048>051-090-091-051400-
...NORTHEAST COLORADO...

CITY           SKY/WX    TMP DP  RH WIND       PRES   REMARKS
GREELEY ARPT   MOSUNNY   64  57  77 CALM      29.96S
AKRON          MOSUNNY   70  52  52 SW10      29.94S
BURLINGTON     SUNNY     65  58  78 S7        29.93S
WRAY           SUNNY     70  59  69 CALM      29.89S
STERLING       MOSUNNY   63  57  82 S3          N/A
HOLYOKE        SUNNY     68  61  77 SW7       29.89S
FORT MORGAN    MOSUNNY   62  54  74 W6        29.94S
$$

COZ086-089-092>099-051400-
...SOUTHEAST COLORADO...

CITY           SKY/WX    TMP DP  RH WIND       PRES   REMARKS
PUEBLO         MOSUNNY   66  54  65 SW5       29.98R
LA JUNTA       SUNNY     70  53  54 W5        29.94S
LAMAR          SUNNY     67  57  70 CALM      29.91R
SPRINGFIELD      N/A     68  59  73 S15       29.98S
$$


USA.gov is the U.S. government's official web portal to all federal, state and local government web resources and services.